Hourly Data Report for October 30, 2015

All times are specified in Local Standard Time (LST). Add 1 hour to adjust for Daylight Saving Time where and when it is observed.

GJOA HAVEN A
NUNAVUT

68°38'08.000" N
95°51'01.000" W
46.90 m
2302337
71597
YHK

Download Data

Hourly Data (October 2015)
Hourly Data Report for October 30, 2015
Temp Definition
°C
Dew Point Temp Definition
°C
Rel Hum Definition
%
Wind Dir Definition
10's deg

Wind Spd Definition
km/h
Visibility Definition
km
Stn Press Definition
kPa
Hmdx Definition


Wind Chill Definition


Weather Definition


TIME
00:00 Legend Double Dagger -18.8 -20.6 86 33 9 16.1 100.65   -25 LegendNANA
01:00 Legend Double Dagger -18.2 -19.9 87 35 17 16.1 100.62   -27 LegendNANA
02:00 Legend Double Dagger -18.0 -19.7 87 35 15 16.1 100.63   -27 LegendNANA
03:00 Legend Double Dagger -19.0 -20.8 86 2 15 16.1 100.63   -28 LegendNANA
04:00 Legend Double Dagger -19.0 -20.8 86 1 9 16.1 100.64   -26 LegendNANA
05:00 Legend Double Dagger -19.0 -20.8 86 36 17 16.1 100.62   -28 LegendNANA
06:00 Legend Double Dagger -19.2 -21.0 86 2 13 16.1 100.61   -27 LegendNANA
07:00 Legend Double Dagger -19.5 -21.3 86 3 8 0.8 100.63   -26 Freezing Fog
08:00 Legend Double Dagger -19.5 -21.3 86 30 8 0.4 100.63   -26 Freezing Fog
09:00 Legend Double Dagger -19.0 -20.8 86 34 4 0.4 100.64   -22 Freezing Fog
10:00 Legend Double Dagger -18.4 -20.2 86 30 5 0.6 100.66   -22 Freezing Fog
11:00 Legend Double Dagger -18.7 -20.5 86 31 8 0.6 100.65   -25 Freezing Fog
12:00 Legend Double Dagger -18.6 -20.4 86 LegendMM 4 0.4 100.67   -22 Freezing Fog
13:00 Legend Double Dagger -17.6 -19.3 87 1 13 1.0 100.63   -25 Fog
14:00 Legend Double Dagger -17.3 -19.0 87 2 9 8.1 100.65   -24 Fog
15:00 Legend Double Dagger -18.1 -19.9 86 35 5 3.6 100.69   -22 Fog
16:00 Legend Double Dagger -17.9 -19.6 87 1 9 2.4 100.70   -24 Fog
17:00 Legend Double Dagger -18.4 -20.2 86 1 9 1.2 100.71   -25 Fog
18:00 Legend Double Dagger -17.8 -19.5 87 2 8 1.6 100.71   -24 Fog
19:00 Legend Double Dagger -17.8 -19.5 87   0 1.6 100.72     Fog
20:00 Legend Double Dagger -17.5 -19.2 87 LegendMM 5 9.7 100.73   -21 Fog
21:00 Legend Double Dagger -17.2 -18.7 88   0 16.1 100.73     LegendNANA
22:00 Legend Double Dagger -17.1 -18.8 87 18 9 1.6 100.75   -23 Fog
23:00 Legend Double Dagger -17.4 -19.1 87 12 5 16.1 100.76   -21 LegendNANA

Notes on Data Quality.

Legend

  • E = Estimated
  • M = Missing
  • NA = Not Available
  • ‡ = Partner data that is not subject to review by the National Climate Archives
Date modified: